Starlink 36170

operational
NORAD ID: 67083 Int'l Des: 2025-298 Owner: SPXS Country: US Constellation: starlink
LEOCIRCULAR

Über Starlink 36170

Beschreibung wird geladen...

Live-Position

3D-Globus wird geladen...

Nächste Überflüge

Höhenverlauf

Altitude vs Time

uPlot chart will show altitude changes over time

Zweizeiliger Elementsatz

1 67083C 25298J 25349.42201389 -.00766960 00000+0 -11608-2 0 3494
2 67083 70.0021 243.0143 0005880 273.5461 182.9196 16.05074895 14
Epoch: 15. Dez. 2025 • Age: 58 hours

Aktueller Status

Höhe 273.9 km
Geschwindigkeit 7.74 km/s
Subsatellitenpunkt -18.60°S, 0.62°E
Startdatum 14. Dez. 2025
Alter 3 days
Typ internet

Technische Details

Klassifizierung Payload
Masse 575.00 kg
Trockenmasse 530.00 kg
Gesamtmasse 575.00 kg
Länge 0.30 m
Durchmesser 4.10 m
Spannweite 29.00 m
Form Box + pan
Hersteller SPXS
Bus-Typ Starlink V2MO
Phasenstatus In Orbit
Besitzer/Staat SPXS/US

Große Konstellationen

Loading constellations...